RH
96 91 87 85 76 64 55 50 41 33 30 35 38 38 38 38 40 41 47 59 64 64 62 63 56 50 53 51 48 45 42 44 49 36 35 37 32 31 39 43 50 53 51
99 96 89 79 66 56 53 46 35 30 34 38 39 40 40 39 40 40 43 59 63 64 62 62 62 57 55 53 54 51 44 46 59 58 55 42 35 36 34 41 56 49 50
93 93 85 72 56 51 47 37 32 33 34 35 37 39 40 42 42 44 50 49 52 56 59 61 62 64 67 67 62 68 53 42 59 49 50 66 41 31 35 37 52 50 51
91 86 80 68 50 45 39 33 34 34 34 36 39 39 40 49 48 44 43 48 53 56 55 61 64 66 71 77 75 72 63 47 50 61 58 57 46 33 37 33 39 43 47
88 84 74 52 43 41 34 33 35 37 40 42 43 44 49 50 46 46 48 57 53 55 58 60 63 68 71 77 80 76 63 54 48 62 62 66 51 40 52 46 48 50 50
82 79 57 42 40 37 33 34 38 40 43 45 50 56 62 62 63 54 57 59 54 51 55 59 65 67 70 68 68 68 59 55 56 57 72 71 61 42 45 54 45 46 45
75 70 48 38 38 36 34 37 39 41 46 48 56 62 65 67 68 67 63 65 57 56 59 60 63 67 65 59 53 51 63 68 56 49 58 75 60 54 59 58 53 54 53
68 60 45 37 38 38 38 39 39 43 48 51 55 56 59 60 59 57 58 59 56 59 60 60 57 48 46 44 40 41 55 69 66 39 52 62 56 47 52 51 49 48 49
62 54 43 41 39 44 41 39 40 44 48 51 50 51 50 49 47 45 44 46 46 47 47 47 45 45 42 44 44 39 49 61 74 56 37 50 49 54 43 42 39 41 39
58 52 46 45 42 46 44 39 41 45 48 48 46 46 47 46 45 43 46 47 50 48 47 43 44 40 39 40 39 39 42 56 74 75 56 48 51 54 38 43 41 37 34
54 51 45 45 47 48 48 42 42 45 45 44 46 48 52 58 58 57 52 50 50 51 50 49 46 43 38 32 26 31 37 57 71 76 80 67 54 57 47 44 43 41 36
48 49 47 44 46 49 50 45 46 45 47 52 55 56 60 58 57 52 51 49 48 48 45 47 46 45 45 50 42 43 41 41 49 61 67 72 75 67 53 56 53 49 41
46 45 46 45 45 46 48 45 47 49 51 51 50 57 62 60 57 56 53 51 45 45 56 52 58 51 49 47 42 43 42 40 42 45 47 58 71 82 78 54 64 70 49
44 42 43 45 42 45 46 45 50 50 53 57 55 51 54 56 54 50 49 49 50 56 53 50 56 55 51 47 46 42 43 42 43 43 39 41 59 74 79 73 54 65 53
44 42 43 42 38 40 41 47 49 52 54 57 50 46 50 52 54 52 50 56 58 55 53 57 54 48 39 41 47 40 41 40 40 43 42 32 45 63 69 77 70 59 57
45 43 43 39 37 37 41 45 47 47 52 50 50 45 44 50 49 54 59 57 55 55 65 60 53 48 37 43 41 36 40 43 36 37 40 36 41 50 57 71 72 65 64
46 44 42 38 37 36 38 41 44 44 47 47 44 41 45 46 49 56 53 51 52 66 57 59 54 56 39 37 34 37 43 37 38 37 43 50 43 40 48 57 63 66 64
46 45 42 38 37 36 36 37 38 38 38 40 42 44 46 47 48 47 60 56 52 53 52 53 51 49 43 41 37 36 41 40 35 35 39 45 45 53 43 48 59 63 58
44 47 40 39 37 36 36 37 36 36 36 35 35 38 42 44 44 47 59 59 49 44 45 47 52 45 45 43 37 37 38 37 36 41 38 37 39 48 52 42 45 52 56
42 42 40 38 37 36 35 35 34 32 31 34 34 36 39 43 48 56 61 61 52 47 54 60 57 49 49 41 43 40 41 39 36 39 41 43 38 38 47 48 45 47 44
37 37 35 35 34 34 33 31 31 28 28 29 30 35 39 44 48 49 54 59 50 45 55 55 54 50 52 45 51 46 42 39 37 38 42 38 33 35 36 36 43 48 40
34 33 33 32 30 27 29 28 27 28 30 30 31 35 38 41 41 44 56 56 48 49 54 54 56 59 53 45 51 52 52 46 39 38 36 35 32 32 30 29 32 30 38
31 28 30 29 27 24 28 28 28 31 35 34 36 33 35 35 36 38 44 49 49 47 56 51 52 53 56 44 46 58 57 56 54 48 42 39 35 35 32 31 30 25 26
26 27 28 29 28 26 24 27 26 27 31 36 36 34 34 31 33 35 35 38 41 48 52 52 48 50 47 50 46 44 45 51 57 58 54 54 51 47 42 40 36 34 32
25 28 25 27 27 27 23 24 25 27 33 35 36 34 32 33 32 36 34 41 36 45 46 47 46 42 45 48 47 50 48 48 46 52 57 55 49 48 48 48 50 49 44
24 26 24 23 21 22 20 20 21 22 26 32 32 33 34 33 35 35 34 36 37 42 45 47 46 43 42 42 46 48 49 49 53 54 51 51 54 55 49 50 48 49 51